Location: Detroit
(42.3310°N, 83.0460°W)
Time: 08:36:56
(UTC-04:00)

Explorer 11/Cluster Stage 4 - Pass Details

Date: 07 February 2023
Orbit: 466 x 1241 km, 28.8° (Epoch: 02 April)

Event Time Altitude Azimuth Distance (km) Brightness Sun altitude
Exits shadow 05:46:58 19° 223° (SW) 2,454 8.7 -21.1°
Maximum altitude 05:51:03 30° 179° (S) 2,021 8.6 -20.4°
Drops below altitude 10° 05:57:49 10° 123° (ESE) 3,202 10.6 -19.1°
Sets 06:01:09 0° 113° (ESE) 4,161 11.6 -18.5°
